Ahmedabad, India

2:30 PM IST on September 26, 2016 (GMT +0530)
Ahmedabad

Weather History for VAAH - March, 2012

Change the Weather History Date:

Wednesday, March 28, 2012

  Actual Average Record
Temperature  
Mean Temperature 90 °F -  
Max Temperature 104 °F 97 °F 105 °F (1998)
Min Temperature 76 °F 71 °F 64 °F (2006)
Cooling Degree Days 25    
Growing Degree Days 40 (Base 50)    
Moisture  
Dew Point 52 °F    
Average Humidity 29    
Maximum Humidity 54    
Minimum Humidity 10    
Precipitation  
Precipitation 0.00 in - - ()
Sea Level Pressure  
Sea Level Pressure 29.89 in    
Wind  
Wind Speed 5 mph ()    
Max Wind Speed 12 mph    
Max Gust Speed -    
Visibility 2.6 miles    
Events      
Averages and records for this station are not official NWS values.
T = Trace of Precipitation, MM = Missing Value Source: Averaged Metar Reports

Daily Weather History Graph

Daily Weather History Graph

Search for Another Location

Airport or City:

Trip Planner

Search our weather history database for the weather conditions in past years. The results will help you decide how hot, cold, wet, or windy it might be!

Date:

Astronomy

Mar. 28, 2012 Rise Set
Actual Time 6:35 AM IST 6:53 PM IST
Civil Twilight 6:13 AM IST 7:16 PM IST
Nautical Twilight 5:46 AM IST 7:42 PM IST
Astronomical Twilight 5:20 AM IST 8:08 PM IST
Moon 10:05 AM IST (3/28) 11:49 PM IST (3/28)
Length of Visible Light 13h 03m
Length of Day
12h 17m
Waxing Crescent, 26% of the Moon is Illuminated
Mar 28
Waxing Crescent
Mar 31
First Quarter
Apr 7
Full
Apr 13
Last Quarter
Apr 21
New

Hourly Weather History & Observations

Time (IST) Temp. Heat Index Dew Point Humidity Pressure Visibility Wind Dir Wind Speed Gust Speed Precip Events Conditions
12:10 AM 87.8 °F - 51.8 °F 29% 29.89 in 2.5 mi West 6.9 mph - N/A   Smoke
12:40 AM 86.0 °F 84.5 °F 55.4 °F 35% 29.89 in 2.5 mi NW 6.9 mph - N/A   Smoke
1:10 AM 84.2 °F 82.8 °F 53.6 °F 35% 29.86 in 2.5 mi WNW 5.8 mph - N/A   Smoke
1:40 AM 84.2 °F - 51.8 °F 33% 29.86 in 2.5 mi West 5.8 mph - N/A   Smoke
2:10 AM 82.4 °F - 51.8 °F 35% 29.86 in 2.5 mi West 4.6 mph - N/A   Smoke
2:30 AM 77 °F - 57 °F 40% 29.86 in 1 mi Calm Calm - -   Smoke
2:40 AM 82.4 °F - 50.0 °F 32% 29.86 in 2.5 mi West 4.6 mph - N/A   Smoke
3:10 AM 82.4 °F - 48.2 °F 30% 29.86 in 2.5 mi WNW 4.6 mph - N/A   Smoke
3:40 AM 78.8 °F - 51.8 °F 39% 29.86 in 2.5 mi WNW 5.8 mph - N/A   Smoke
4:10 AM 78.8 °F - 51.8 °F 39% 29.86 in 2.5 mi NW 4.6 mph - N/A   Smoke
4:40 AM 80.6 °F - 51.8 °F 37% - 2.5 mi WNW 6.9 mph - N/A   Smoke
5:10 AM 80.6 °F - 51.8 °F 37% 29.86 in 2.5 mi West 5.8 mph - N/A   Smoke
5:30 AM 79 °F - 58 °F 39% 29.87 in 1 mi WNW 4.6 mph - -   Smoke
6:10 AM 78.8 °F - 57.2 °F 47% 29.89 in 1.9 mi NW 6.9 mph - N/A   Haze
6:40 AM 77.0 °F - 57.2 °F 50% 29.92 in 1.9 mi North 4.6 mph - N/A   Haze
7:10 AM 77.0 °F - 57.2 °F 50% 29.95 in 1.6 mi North 5.8 mph - N/A   Haze
7:40 AM 77.0 °F - 59.0 °F 54% 29.95 in 1.6 mi Variable 2.3 mph - N/A   Haze
8:10 AM 80.6 °F 81.5 °F 60.8 °F 51% 29.95 in 1.6 mi Variable 2.3 mph - N/A   Haze
8:30 AM 81 °F - 62 °F 42% 29.95 in 2 mi NNW 3.5 mph - -   Smoke
8:40 AM 84.2 °F 84.4 °F 60.8 °F 45% 29.98 in 1.6 mi North 6.9 mph - N/A   Smoke
10:10 AM 93.2 °F - 51.8 °F 24% 29.98 in 2.2 mi North 11.5 mph - N/A   Smoke
10:40 AM 95.0 °F 92.7 °F 53.6 °F 25% 29.98 in 2.5 mi North 9.2 mph - N/A   Smoke
11:10 AM 96.8 °F - 51.8 °F 22% 29.95 in 2.5 mi North 9.2 mph - N/A   Smoke
11:30 AM 100 °F - 59 °F 17% 29.84 in 2 mi NNE 2.3 mph - -   Smoke
12:10 PM 98.6 °F - 51.8 °F 21% 29.95 in 3.1 mi North 9.2 mph - N/A   Smoke
12:40 PM 102.2 °F - 50.0 °F 17% 29.92 in 3.1 mi North 8.1 mph - N/A   Smoke
1:10 PM 102.2 °F - 51.8 °F 18% 29.92 in 3.7 mi North 8.1 mph - N/A   Unknown
1:40 PM 104.0 °F - 50.0 °F 16% 29.89 in 3.7 mi NNW 5.8 mph - N/A   Unknown
2:10 PM 104.0 °F - 48.2 °F 15% 29.89 in 3.7 mi West 6.9 mph - N/A   Unknown
2:30 PM 84 °F - 50 °F 21% 29.89 in 2 mi NW 6.9 mph - -  
2:40 PM 105.8 °F - 50.0 °F 15% 29.86 in 3.7 mi WNW 8.1 mph - N/A   Unknown
3:10 PM 105.8 °F - 46.4 °F 14% 29.86 in 3.7 mi WNW 11.5 mph - N/A   Unknown
3:40 PM 105.8 °F - 46.4 °F 14% 29.83 in 3.7 mi WNW 9.2 mph - N/A   Unknown
4:10 PM 105.8 °F - 42.8 °F 12% 29.83 in 3.7 mi West 9.2 mph - N/A   Unknown
4:40 PM 105.8 °F - 42.8 °F 12% 29.83 in 3.7 mi West 8.1 mph - N/A   Unknown
5:10 PM 104.0 °F - 46.4 °F 14% 29.83 in 3.7 mi NW 6.9 mph - N/A   Unknown
5:30 PM 101 °F - 50 °F 10% 29.86 in 2 mi NW 3.5 mph - -  
5:40 PM 104.0 °F - 46.4 °F 14% 29.83 in 3.7 mi NNW 4.6 mph - N/A   Unknown
6:10 PM 102.2 °F - 48.2 °F 16% 29.86 in 3.7 mi NNW 4.6 mph - N/A   Unknown
7:10 PM 96.8 °F - 48.2 °F 19% 29.86 in 2.5 mi NNE 4.6 mph - N/A   Smoke
7:40 PM 95.0 °F - 48.2 °F 20% 29.89 in 2.5 mi NNW 4.6 mph - N/A   Smoke
8:30 PM 86 °F - 56 °F 26% 29.91 in 2 mi Calm Calm - -  
8:40 PM 87.8 °F - 50.0 °F 27% 29.89 in 2.5 mi ENE 4.6 mph - N/A   Smoke
9:10 PM 87.8 °F 85.7 °F 53.6 °F 31% 29.92 in 2.5 mi North 4.6 mph - N/A   Smoke
9:40 PM 84.2 °F 83.5 °F 57.2 °F 40% 29.92 in 2.5 mi NNE 4.6 mph - N/A   Smoke
10:10 PM 84.2 °F - 48.2 °F 29% 29.92 in 2.5 mi NE 5.8 mph - N/A   Smoke
10:40 PM 84.2 °F - 48.2 °F 29% 29.92 in 2.5 mi NNE 3.5 mph - N/A   Smoke
11:10 PM 84.2 °F - 48.2 °F 29% 29.92 in 2.5 mi North 3.5 mph - N/A   Smoke
11:30 PM 78 °F - 58 °F 40% 29.93 in 2 mi Calm Calm - -  
11:40 PM 84.2 °F - 50.0 °F 30% 29.92 in 2.5 mi North 3.5 mph - N/A   Smoke